KN4RPA Weather Reports


time (UTC)temp
C
wind
direction
speed
KPH
gust
KPH
rain 1hr
cm
rain 24hr
cm
rain mn
cm
humidity
%
barometer
mb
20260510180043 28 152 0.0 8.0 0.00 0.00 0.00 28 1011.3
20260510174541 28 149 0.0 9.7 0.00 0.00 0.00 27 1011.3
20260510173039 27 146 0.0 8.0 0.00 0.00 0.00 27 1011.3
20260510171538 26 169 0.0 8.0 0.00 0.00 0.00 29 1011.3
20260510170042 26 154 0.0 9.7 0.00 0.00 0.00 31 1011.7
20260510164545 26 150 0.0 4.8 0.00 0.00 0.00 31 1011.8
20260510163034 26 150 0.0 4.8 0.00 0.00 0.00 30 1011.8
20260510161530 26 148 0.0 4.8 0.00 0.00 0.00 35 1011.9
20260510160026 26 157 3.2 9.7 0.00 0.00 0.00 31 1012.2
20260510154541 26 153 0.0 3.2 0.00 0.00 0.00 32 1012.3
20260510153024 25 153 0.0 9.7 0.00 0.00 0.00 35 1012.4
20260510151517 25 153 0.0 8.0 0.00 0.00 0.00 36 1012.4
20260510150014 25 153 0.0 3.2 0.00 0.00 0.00 38 1012.3
20260510144517 24 153 1.6 8.0 0.00 0.00 0.00 37 1012.2
20260510143006 23 153 0.0 4.8 0.00 0.00 0.00 41 1012.2
20260510141501 22 153 0.0 1.6 0.00 0.00 0.00 47 1012.0
20260510140057 21 153 0.0 1.6 0.00 0.00 0.00 51 1012.0
20260510134553 19 153 0.0 1.6 0.00 0.00 0.00 58 1012.0
20260510133048 17 153 0.0 3.2 0.00 0.00 0.00 70 1011.9
20260510131548 16 153 0.0 1.6 0.00 0.00 0.00 82 1011.9
20260510130043 15 153 0.0 0.0 0.00 0.00 0.00 87 1011.9
20260510124542 15 153 0.0 0.0 0.00 0.00 0.00 89 1012.0
20260510123043 13 153 0.0 0.0 0.00 0.00 0.00 89 1011.9
20260510121539 13 153 0.0 0.0 0.00 0.00 0.00 89 1011.7
20260510120036 12 153 0.0 0.0 0.00 0.00 0.00 88 1011.7
20260510114535 11 153 0.0 0.0 0.00 0.00 0.00 88 1011.5
20260510113030 11 153 0.0 0.0 0.00 0.00 0.00 87 1011.4
20260510111527 11 153 0.0 0.0 0.00 0.00 0.00 87 1011.3
20260510110024 11 153 0.0 0.0 0.00 0.00 0.00 86 1011.0
20260510104522 11 153 0.0 0.0 0.00 0.00 0.00 86 1010.9
20260510103019 11 153 0.0 0.0 0.00 0.00 0.00 85 1010.7
20260510101515 11 153 0.0 0.0 0.00 0.00 0.00 85 1010.6
20260510100013 11 153 0.0 0.0 0.00 0.00 0.00 85 1010.2
20260510094511 12 153 0.0 0.0 0.00 0.00 0.00 85 1010.2
20260510093009 12 153 0.0 0.0 0.00 0.00 0.00 85 1010.1
20260510091513 12 153 0.0 0.0 0.00 0.00 0.00 85 1009.9
20260510090008 12 153 0.0 0.0 0.00 0.00 0.00 85 1009.9
20260510084507 12 153 0.0 0.0 0.00 0.00 0.00 85 1009.9
20260510083007 12 153 0.0 0.0 0.00 0.00 0.00 84 1009.8
20260510081504 12 153 0.0 0.0 0.00 0.00 0.00 84 1009.7
20260510080003 12 153 0.0 0.0 0.00 0.00 0.00 83 1009.4
20260510074502 12 153 0.0 0.0 0.00 0.00 0.00 82 1009.6
20260510073116 13 153 0.0 0.0 0.00 0.00 0.00 82 1009.1
20260510071558 13 153 0.0 1.6 0.00 0.00 0.00 81 1009.1
20260510070100 13 153 0.0 0.0 0.00 0.00 0.00 80 1009.2
20260510064634 13 153 0.0 0.0 0.00 0.00 0.00 79 1009.0
20260510063054 13 153 0.0 0.0 0.00 0.00 0.00 79 1009.1
20260510061550 14 153 0.0 0.0 0.00 0.00 0.00 76 1009.1
20260510060049 15 153 0.0 0.0 0.00 0.00 0.00 75 1009.0
20260510054547 15 153 0.0 0.0 0.00 0.00 0.00 74 1009.0
20260510053047 15 153 0.0 0.0 0.00 0.00 0.00 73 1009.1
20260510051550 16 153 0.0 0.0 0.00 0.00 0.00 72 1008.9
20260510050039 16 153 0.0 0.0 0.00 0.00 0.00 71 1009.0
20260510044538 16 153 0.0 0.0 0.00 0.00 0.00 71 1008.9
20260510043039 16 153 0.0 0.0 0.00 0.00 0.00 71 1008.9
20260510041538 16 153 0.0 0.0 0.00 0.00 0.00 71 1008.9
20260510040044 16 153 0.0 0.0 0.00 0.00 0.00 70 1008.7
20260510034544 16 153 0.0 1.6 0.00 0.00 0.00 69 1008.6
20260510033038 16 153 0.0 0.0 0.00 0.00 0.00 68 1008.6
20260510031535 16 153 0.0 0.0 0.00 0.00 0.00 67 1008.5
20260510030035 16 153 0.0 0.0 0.00 0.00 0.00 65 1008.4
20260510024534 17 153 0.0 0.0 0.00 0.00 0.00 63 1008.2
20260510023034 17 153 0.0 0.0 0.00 0.00 0.00 62 1008.1
20260510021534 17 153 0.0 0.0 0.00 0.00 0.00 61 1008.1
20260510020033 17 153 0.0 0.0 0.00 0.00 0.00 60 1007.9
20260510014532 18 153 0.0 0.0 0.00 0.00 0.00 59 1007.6
20260510013034 18 153 0.0 0.0 0.00 0.00 0.00 58 1007.3
20260510011531 19 153 0.0 0.0 0.00 0.00 0.00 56 1007.1
20260510010030 20 153 0.0 0.0 0.00 0.00 0.00 55 1007.0
20260510004529 20 153 0.0 0.0 0.00 0.00 0.00 52 1006.9
20260510003030 21 153 0.0 0.0 0.00 0.00 0.00 51 1006.6
20260510001527 21 153 0.0 0.0 0.00 0.00 0.00 49 1006.7
20260510000027 22 153 0.0 0.0 0.00 0.00 0.00 48 1006.6
20260509234527 22 153 0.0 1.6 0.00 0.00 0.00 47 1006.5
20260509233026 22 153 0.0 1.6 0.00 0.00 0.00 45 1006.4
20260509231527 23 153 0.0 3.2 0.00 0.00 0.00 43 1006.5
20260509230025 23 138 0.0 4.8 0.00 0.00 0.00 42 1006.4
20260509224524 23 137 0.0 4.8 0.00 0.00 0.00 41 1006.3
20260509223024 23 136 0.0 6.4 0.00 0.00 0.00 41 1006.3
20260509221523 23 130 0.0 4.8 0.00 0.00 0.00 42 1006.4
20260509220037 23 130 0.0 3.2 0.00 0.00 0.00 41 1006.4
20260509214522 23 157 1.6 11.3 0.00 0.00 0.00 41 1006.3
20260509213022 23 157 0.0 12.9 0.00 0.00 0.00 42 1006.4
20260509211521 23 160 0.0 8.0 0.00 0.00 0.00 42 1006.3
20260509210021 23 160 0.0 4.8 0.00 0.00 0.00 40 1006.2
20260509204520 23 164 0.0 12.9 0.00 0.00 0.00 42 1006.2
20260509203029 23 165 0.0 4.8 0.00 0.00 0.00 44 1006.1
20260509201515 23 165 1.6 9.7 0.00 0.00 0.00 43 1006.4
20260509200013 23 153 0.0 9.7 0.00 0.00 0.00 45 1006.5
20260509194512 23 158 0.0 11.3 0.00 0.00 0.00 45 1006.7
20260509193010 23 161 0.0 11.3 0.00 0.00 0.00 47 1006.8
20260509191510 22 157 0.0 4.8 0.00 0.00 0.00 51 1007.3
20260509190007 22 157 1.6 11.3 0.00 0.00 0.00 50 1007.6
20260509184506 22 152 0.0 11.3 0.00 0.00 0.00 50 1007.7
20260509183002 21 140 0.0 8.0 0.00 0.00 0.00 54 1008.0
20260509181601 21 100 0.0 11.3 0.00 0.00 0.00 52 1008.0